Theta_e
305 305 306 306 308 316 317 316 314 313 314 316 317 315 313 312 312 312 311 315 316 319 320 333 327 329 330 332 332 338 338 339 342 340 337 325 339 339 342 350 348 348 351 349 349
306 306 306 306 306 312 317 315 315 313 312 312 316 317 313 313 314 315 316 315 320 320 319 323 331 330 330 330 328 328 331 335 334 333 330 324 340 340 348 349 350 354 350 350 350
306 306 306 306 306 308 313 314 315 314 312 311 313 316 313 314 327 325 326 315 317 321 321 321 324 324 326 325 324 328 328 329 331 324 324 326 340 345 346 348 348 355 353 350 352
305 306 305 306 306 306 308 316 315 315 312 311 312 316 314 319 331 332 325 316 321 320 319 320 324 327 326 325 324 325 325 327 325 324 323 327 333 349 348 348 346 351 350 351 353
304 305 305 305 305 306 307 316 316 314 311 313 314 316 316 320 317 329 319 321 321 319 318 322 330 330 328 324 323 324 328 324 323 323 324 324 331 341 340 346 347 350 352 352 352
303 304 304 304 305 306 307 316 316 313 312 315 315 315 324 329 332 328 320 322 321 319 320 324 329 327 325 323 324 326 329 325 323 325 326 327 329 341 348 346 349 351 353 353 352
303 303 304 304 305 306 307 315 316 314 313 316 315 323 327 323 331 323 321 321 320 318 322 325 328 328 323 322 325 330 328 323 324 325 326 327 336 344 347 347 349 350 350 352 352
302 303 303 304 305 307 308 316 318 315 315 313 315 322 322 332 328 321 319 319 318 318 324 327 327 325 321 324 326 327 323 324 325 323 326 327 339 342 346 346 348 349 350 349 350
302 303 303 304 305 306 309 321 319 316 316 317 327 325 330 330 327 326 323 324 321 320 320 322 324 324 325 326 323 321 326 324 325 322 326 331 339 339 343 346 346 346 347 348 347
302 303 304 305 305 307 314 322 319 320 324 324 325 327 327 327 329 327 327 327 325 324 325 325 318 320 318 321 326 325 324 322 325 324 326 333 337 339 347 347 347 349 349 348 348
303 303 304 305 306 308 319 322 314 319 325 316 320 326 328 330 327 327 327 325 325 325 325 324 323 323 322 321 324 326 325 324 326 324 327 332 340 340 348 350 353 351 352 352 352
303 304 305 306 307 315 321 320 320 320 320 320 325 325 327 327 324 325 326 324 324 325 323 321 324 324 325 325 325 324 323 325 326 326 326 330 338 339 349 351 351 350 350 350 351
303 304 305 306 308 321 313 323 322 322 319 321 322 324 324 325 324 323 323 323 326 325 323 321 322 324 327 327 325 324 325 326 327 324 323 324 327 339 339 344 344 346 346 348 351
303 304 305 306 314 308 320 322 321 322 320 323 324 323 323 321 323 322 324 324 325 325 323 323 323 325 326 327 323 325 325 325 325 323 326 322 323 325 335 344 344 343 344 344 346
303 304 305 304 306 310 319 318 324 321 331 329 325 325 320 323 324 323 324 324 325 324 322 323 324 326 327 327 324 326 324 325 325 321 322 323 322 321 339 344 344 341 343 343 343
304 304 304 307 307 309 312 322 323 323 324 330 323 322 323 323 323 322 323 323 323 324 322 322 323 324 326 326 325 324 324 322 321 320 326 325 323 325 343 346 343 341 342 341 339
304 305 304 306 306 314 315 320 323 329 326 327 322 321 321 322 323 323 322 323 321 322 322 323 325 324 325 325 324 321 321 324 327 327 329 324 326 325 332 340 342 341 341 340 339
305 306 307 308 309 309 320 322 331 327 328 325 320 319 322 320 322 322 321 320 320 320 319 321 324 325 325 323 325 325 322 324 330 328 327 326 336 333 330 332 336 339 340 338 337
305 307 310 311 310 311 317 325 325 326 325 323 321 321 321 321 322 322 319 319 320 318 320 322 327 326 326 325 325 326 324 322 322 320 322 323 332 331 332 334 336 336 337 338 336
305 311 312 315 312 317 317 321 322 323 322 322 325 321 321 323 321 320 320 320 321 319 319 321 326 326 326 325 324 324 320 324 319 327 327 325 330 333 333 333 330 334 337 334 331
308 308 316 317 321 313 317 316 320 320 320 321 324 324 322 324 325 322 321 322 321 322 320 320 322 325 326 326 325 325 324 320 319 319 325 329 330 327 329 329 330 335 332 331 331
300 304 317 317 314 309 315 317 318 320 318 318 320 322 322 321 324 325 326 324 326 321 322 321 318 324 324 325 323 325 324 321 325 326 322 322 326 323 327 327 327 331 332 330 330
300 303 317 316 316 314 314 317 318 317 317 321 322 323 321 320 322 326 328 326 327 326 324 322 321 324 325 322 322 324 326 323 319 320 324 326 326 324 325 332 332 333 332 330 332
304 317 314 311 311 315 320 320 318 319 320 320 321 322 322 323 321 323 325 326 324 326 335 326 320 321 324 323 322 324 325 323 322 325 325 324 326 325 335 336 335 334 331 331 334
308 318 313 318 317 317 317 321 326 322 321 318 321 321 321 322 323 326 325 324 324 329 321 319 323 326 324 324 323 323 325 323 323 320 322 320 323 322 332 335 334 332 331 334 334
311 310 308 311 313 314 313 316 319 319 318 319 323 325 321 324 322 326 325 324 325 324 321 316 321 323 324 325 326 327 326 325 323 321 320 318 319 316 332 331 332 332 334 335 333
304 306 307 311 312 314 315 315 319 316 322 323 323 323 324 325 323 323 322 320 321 322 320 319 321 319 323 326 326 327 325 324 324 322 322 322 320 331 332 330 330 328 331 333 332
Wind_Speed
24 24 25 27 28 27 14 14 13 10 9 10 9 8 7 7 8 7 6 8 10 8 7 4 3 1 1 3 2 1 4 3 5 4 4 4 6 3 2 9 1 5 9 14 29
24 26 26 27 27 26 18 15 13 11 10 9 9 7 6 6 6 10 12 11 11 9 10 7 3 5 1 2 1 4 3 7 7 5 5 6 16 11 7 7 3 12 17 30 31
25 27 26 27 28 25 24 16 15 11 11 9 7 7 4 4 1 6 1 14 17 9 5 3 3 2 2 1 3 4 5 4 8 8 4 5 6 3 16 3 6 20 23 23 26
26 27 28 28 28 26 27 17 15 9 10 8 4 7 4 0 3 2 3 18 14 11 6 3 3 2 1 3 2 4 7 6 7 4 6 7 6 5 6 7 14 24 27 23 21
27 28 29 29 29 27 28 18 12 7 9 6 2 10 4 1 7 2 11 17 14 11 7 4 4 3 2 3 6 5 5 7 5 2 5 9 6 8 4 11 15 17 21 22 18
29 29 29 31 30 28 28 17 7 6 7 4 7 10 2 2 2 8 15 16 12 13 7 7 3 4 3 2 2 5 6 7 4 3 3 8 4 5 2 16 19 20 19 18 20
29 30 31 31 31 28 29 14 5 4 6 4 11 3 0 5 3 13 14 15 15 13 4 6 4 2 5 7 2 4 7 6 2 2 2 9 6 2 13 18 20 19 18 17 15
30 31 32 32 32 28 28 11 2 1 4 5 2 1 5 2 6 13 14 8 10 13 9 4 2 1 3 3 8 6 4 3 5 6 2 6 5 1 13 19 18 17 15 14 17
31 32 33 33 33 30 25 10 3 3 3 3 1 1 4 4 7 10 12 5 7 11 8 9 3 2 4 3 5 5 3 4 7 8 6 4 4 2 7 13 14 13 12 12 8
33 32 33 33 31 32 13 5 5 3 3 1 2 2 2 5 8 8 13 8 3 3 3 2 4 2 3 4 3 4 3 4 5 4 6 6 5 5 4 14 12 11 9 11 13
34 34 34 32 30 26 2 3 3 2 2 7 3 3 3 2 12 10 12 6 1 1 4 1 3 6 10 8 2 1 4 5 1 3 5 7 9 8 7 16 13 7 7 6 7
35 35 35 31 30 10 4 2 4 7 7 9 5 6 10 6 2 4 12 5 5 5 4 4 6 11 5 4 6 5 6 4 2 2 4 5 4 4 9 16 17 13 8 8 6
35 36 35 30 19 1 11 2 17 6 1 7 6 5 5 10 6 9 10 5 3 3 4 5 7 3 3 0 4 2 4 3 3 6 6 8 4 5 3 2 7 6 6 5 10
36 35 35 33 1 15 5 9 18 4 4 6 4 7 5 6 3 7 15 6 2 6 6 6 7 5 2 2 5 3 3 3 3 4 2 3 4 5 5 5 5 9 8 7 7
38 34 31 22 15 5 5 16 10 4 2 3 3 4 7 9 3 5 7 3 6 5 5 7 4 3 3 4 5 4 4 2 2 4 3 3 4 5 8 6 10 8 10 9 10
39 33 32 8 9 10 11 12 3 5 5 2 6 6 7 3 1 3 4 3 2 4 1 7 4 4 6 3 2 3 4 6 4 3 2 3 5 4 12 20 8 7 10 11 8
39 32 25 13 5 4 12 3 4 3 4 3 4 4 5 5 3 4 6 8 5 3 2 3 3 3 4 4 5 7 7 4 5 5 5 1 1 7 14 16 19 17 13 8 8
39 31 15 17 3 11 2 5 3 4 6 4 4 4 8 5 5 6 6 4 5 4 3 3 5 4 3 6 7 4 7 5 3 2 6 3 3 5 9 8 10 13 13 8 8
37 15 9 7 14 9 5 2 7 6 3 4 2 5 3 2 4 3 9 8 8 9 8 5 4 3 1 4 7 3 2 3 6 3 2 4 5 6 6 11 15 11 9 10 6
25 11 7 2 18 9 4 6 4 5 4 3 4 3 5 4 6 7 6 5 7 10 4 7 3 1 1 5 5 5 7 4 3 1 3 5 4 5 4 7 7 9 10 7 7
7 4 13 16 9 5 4 7 5 5 6 3 2 3 4 4 5 5 6 6 7 4 6 5 4 4 2 2 7 2 1 7 5 4 5 1 6 6 10 8 10 10 8 9 8
7 2 4 14 3 1 3 6 3 3 1 6 5 2 5 6 4 4 7 7 2 7 10 6 6 4 9 3 2 3 5 5 5 5 1 4 6 4 7 4 5 8 9 8 8
3 3 4 3 3 2 5 4 3 4 5 3 3 3 2 6 3 4 3 3 2 4 8 7 0 3 6 6 4 5 3 5 5 3 5 6 6 4 5 7 6 14 9 8 8
2 4 4 4 2 4 2 4 4 4 6 6 6 3 4 3 4 2 4 3 5 3 7 9 3 6 8 6 4 4 3 5 6 3 2 5 3 3 3 8 8 7 7 8 9
1 1 2 3 3 3 2 2 4 6 3 6 2 3 6 4 3 2 3 6 6 4 4 4 4 3 3 4 3 3 4 4 4 5 5 5 7 5 10 11 10 8 8 9 8
2 3 4 3 3 4 5 4 3 6 3 5 3 3 5 5 5 6 3 1 2 5 4 5 2 2 2 3 4 3 2 5 4 4 5 5 6 7 5 6 7 10 11 10 8
6 3 3 3 5 3 1 4 4 6 4 3 7 7 9 4 4 3 3 1 2 6 2 4 6 3 4 1 3 3 7 6 3 4 5 5 9 6 5 8 11 9 9 9 8
Wind_Direction
7 6 5 5 5 360 347 343 338 330 308 281 273 281 284 284 285 275 251 225 211 165 146 118 147 270 269 319 211 165 44 276 263 314 270 125 124 174 61 125 149 182 133 146 148
1 1 3 5 5 2 353 345 340 330 323 304 270 258 269 283 291 257 246 214 173 174 202 189 144 162 325 264 280 106 140 234 209 237 265 134 153 155 120 142 66 83 114 139 147
357 357 360 1 3 1 356 342 339 325 326 313 287 229 242 308 292 246 279 191 197 185 182 152 135 143 213 177 225 179 212 228 265 243 197 90 116 86 131 195 219 144 144 151 153
355 353 355 356 360 359 356 340 334 324 329 318 283 188 201 357 156 281 255 172 169 173 212 147 125 149 238 263 274 278 259 230 264 236 89 130 126 107 181 206 161 153 156 154 161
352 351 350 351 355 357 356 345 334 335 342 334 205 164 156 183 252 220 156 164 177 188 184 162 153 182 241 266 331 173 312 311 320 234 98 116 149 170 189 121 137 142 154 159 164
349 349 349 349 351 354 354 349 345 357 0 6 154 153 162 247 219 179 170 177 193 194 176 185 175 209 276 288 125 284 281 291 299 52 137 117 146 110 93 129 148 153 161 166 171
348 347 347 347 347 349 351 347 340 6 29 78 134 132 196 231 253 175 181 193 202 196 158 201 168 64 352 321 232 273 340 343 192 84 216 104 11 116 145 146 157 170 163 167 174
347 345 345 346 346 344 346 337 299 83 83 109 119 93 238 355 181 175 178 194 208 210 230 272 220 280 157 300 351 3 42 20 283 128 182 81 229 0 157 150 166 173 178 173 170
346 344 344 344 344 341 342 341 169 137 113 126 73 47 276 113 191 197 179 169 191 221 258 302 302 192 25 73 356 359 250 244 308 192 129 92 185 200 180 161 163 173 181 183 172
346 344 342 341 343 338 348 55 117 115 108 358 270 325 238 217 189 194 202 186 151 103 332 161 53 64 33 82 229 238 313 237 237 209 53 116 167 121 173 172 157 157 173 190 192
345 342 340 338 340 333 337 125 11 14 173 204 186 264 281 270 185 203 197 142 86 146 170 328 84 223 219 203 223 304 265 263 165 129 106 170 149 145 141 134 135 148 155 170 190
346 342 340 336 335 329 36 344 48 290 304 228 230 266 268 267 294 268 177 158 150 191 133 19 247 249 215 188 215 211 228 358 300 80 106 139 125 114 162 146 156 158 162 162 142
346 341 341 334 331 140 321 179 342 2 157 291 190 193 203 153 205 223 142 174 155 188 177 172 237 11 219 56 158 28 101 85 85 0 37 100 22 148 243 93 139 135 122 128 149
345 341 340 335 20 332 288 331 344 122 50 270 220 253 155 135 241 205 176 145 149 212 179 224 266 232 150 181 139 123 206 126 102 72 206 121 217 226 210 168 181 149 147 156 140
342 337 335 334 303 284 323 331 355 83 342 171 199 153 151 157 177 220 161 76 184 192 94 264 286 180 144 179 144 189 147 63 119 117 106 321 101 266 134 209 203 170 160 171 167
337 333 328 319 283 272 326 336 62 45 258 207 145 158 119 194 206 56 139 76 154 186 37 237 292 176 180 89 89 95 59 49 65 105 48 247 129 231 178 203 181 175 173 174 179
333 326 311 272 239 192 341 37 49 157 307 211 183 157 158 169 208 158 160 194 183 121 323 325 261 299 135 117 13 69 54 353 3 8 227 131 83 241 224 192 182 170 178 178 179
329 323 299 259 149 251 306 57 188 233 237 314 112 96 178 158 220 179 135 202 239 99 114 153 326 195 185 169 158 76 133 149 220 232 272 12 308 271 253 170 131 158 178 163 179
331 321 280 278 215 198 82 116 210 214 286 336 34 117 241 196 178 161 196 203 202 170 164 138 276 359 198 147 120 177 100 168 102 17 43 282 303 325 21 127 148 160 152 179 175
332 325 283 269 150 134 86 228 238 224 338 322 173 153 168 193 156 156 177 217 232 184 155 212 99 283 265 79 45 129 154 67 20 182 269 311 282 239 258 169 136 146 165 157 115
349 2 339 157 145 55 169 227 261 260 44 356 274 126 151 158 148 191 223 243 221 159 126 132 101 267 79 179 176 54 69 52 111 128 163 270 273 222 196 186 167 173 149 136 129
357 354 62 171 66 26 177 200 271 305 244 262 217 152 160 191 193 212 205 218 309 157 159 191 137 159 205 316 279 107 151 136 129 220 180 156 267 327 191 185 129 131 130 134 146
351 267 4 203 159 260 289 286 246 275 265 242 256 181 176 185 199 220 197 331 179 118 161 176 314 77 3 352 356 104 122 114 119 86 192 143 262 13 103 119 154 150 153 150 143
30 356 322 34 31 120 46 269 272 242 249 230 203 149 125 135 34 99 351 8 345 77 84 96 104 150 184 194 154 122 96 82 108 106 183 221 278 285 132 151 154 155 143 147 169
63 313 163 326 348 351 305 296 311 334 340 0 288 174 157 133 72 30 23 341 17 18 61 92 127 149 153 148 134 150 143 159 165 182 160 235 210 249 198 179 177 166 158 161 178
61 32 348 283 297 348 7 13 335 320 284 309 55 19 100 124 178 180 153 87 242 3 51 6 128 69 64 56 121 182 189 185 188 176 252 267 276 220 153 129 162 169 169 176 184
349 357 111 299 349 54 8 313 302 332 250 357 153 95 75 137 165 174 192 140 275 164 122 91 125 89 220 217 126 309 210 182 185 209 195 229 237 149 176 195 183 176 177 179 189